This is the latest recevied weather packets stored in our database for station/object W7TRD. If no packets are shown the sender has not sent any weather packets the latest 10 day(s).
| Time | Temp. | Humidity | Pressure | Rain* | Wind** | Luminosity | Snow |
|---|---|---|---|---|---|---|---|
| 1777906133 | 15° C | 78% | 1013.6 hPa | 0 mm | - | 160 W/m² | - |
| 1777905830 | 14.44° C | 79% | 1013.8 hPa | 0 mm | - | 146 W/m² | - |
| 1777905527 | 14.44° C | 80% | 1013.7 hPa | 0 mm | - | 145 W/m² | - |
| 1777905223 | 14.44° C | 80% | 1013.4 hPa | 0 mm | - | 129 W/m² | - |
| 1777904922 | 13.89° C | 80% | 1013.4 hPa | 0 mm | - | 112 W/m² | - |
| 1777904618 | 13.89° C | 81% | 1013.2 hPa | 0 mm | - | 105 W/m² | - |
| 1777904316 | 14.44° C | 80% | 1013.2 hPa | 0 mm | - | 91 W/m² | - |
| 1777904013 | 14.44° C | 81% | 1013.3 hPa | 0 mm | - | 89 W/m² | - |
| 1777903709 | 13.89° C | 82% | 1013.2 hPa | 0 mm | - | 78 W/m² | - |
| 1777903405 | 13.89° C | 83% | 1013 hPa | 0 mm | - | 67 W/m² | - |
| 1777903102 | 13.33° C | 83% | 1013 hPa | 0 mm | - | 56 W/m² | - |
| 1777902798 | 13.33° C | 83% | 1013 hPa | 0 mm | - | 47 W/m² | - |
| 1777902496 | 13.33° C | 83% | 1013.1 hPa | 0 mm | - | 44 W/m² | - |
| 1777902192 | 13.33° C | 84% | 1012.9 hPa | 0 mm | - | 38 W/m² | - |
| 1777901891 | 12.78° C | 85% | 1012.7 hPa | 0 mm | - | 30 W/m² | - |
| 1777901588 | 12.78° C | 85% | 1012.4 hPa | 0 mm | - | 25 W/m² | - |
| 1777901285 | 12.78° C | 85% | 1012.4 hPa | 0 mm | - | 20 W/m² | - |
| 1777900983 | 12.78° C | 84% | 1012.4 hPa | 0 mm | - | 17 W/m² | - |
| 1777900680 | 13.33° C | 84% | 1012.4 hPa | 0 mm | - | 13 W/m² | - |
| 1777900377 | 13.33° C | 83% | 1012.2 hPa | 0 mm | - | 10 W/m² | - |
| 1777900074 | 13.33° C | 83% | 1012.2 hPa | 0 mm | - | 7 W/m² | - |
| 1777899770 | 13.33° C | 82% | 1012 hPa | 0 mm | - | 5 W/m² | - |
| 1777899467 | 13.89° C | 82% | 1012 hPa | 0 mm | - | 3 W/m² | - |
| 1777899165 | 13.89° C | 81% | 1011.8 hPa | 0 mm | - | 2 W/m² | - |
| 1777898862 | 13.89° C | 81% | 1011.8 hPa | 0 mm | - | 1 W/m² | - |
* Rain latest hour (hover to see other rain measurements)
** Current wind speed in m/s (hover to see current wind gust speed)